This demonstration page uses our WeatherBlox Daily Observations layout. Learn more.

Left ArrowRight Arrow

39.01783, -85.05884

Hourly Observations for March 7, 2015

Temp ( °F °C ) Dew Point ( °F °C ) Humidity (%) Winds ( mph kmh ) Pressure ( in mb ) Visibility ( mi km ) Precip ( " mm )
12:52 am 00:52 Clear 22 -5.6 13 -10.6 68 68 SSW 9 15 30.36 1028 10 16 0.00 0.00
1:52 am 01:52 Clear 22 -5.6 12 -11.1 66 66 SSW 9 15 30.35 1028 10 16 0.00 0.00
2:52 am 02:52 Clear 22 -5.6 11 -11.7 63 63 SSW 9 15 30.33 1027 10 16 0.00 0.00
3:52 am 03:52 Clear 22 -5.6 11 -11.7 63 63 SSW 9 15 30.31 1026 10 16 0.00 0.00
4:52 am 04:52 Clear 22 -5.6 11 -11.7 63 63 SSW 9 15 30.30 1026 10 16 0.00 0.00
5:52 am 05:52 Clear 23 -5 11 -11.7 60 60 SSW 10 17 30.31 1026 10 16 0.00 0.00
6:52 am 06:52 Mostly Cloudy 23 -5 12 -11.1 63 63 SSW 13 20 30.29 1026 10 16 0.00 0.00
7:52 am 07:52 Cloudy 25 -3.9 13 -10.6 60 60 SSW 14 22 30.28 1025 10 16 0.00 0.00
8:52 am 08:52 Cloudy 27 -2.8 14 -10 58 58 SW 9 15 30.29 1026 10 16 0.00 0.00
9:52 am 09:52 Mostly Cloudy 30 -1.1 17 -8.3 58 58 SSW 12 19 30.28 1025 10 16 0.00 0.00
10:52 am 10:52 Cloudy 34 1.1 19 -7.2 54 54 SW 9 15 30.28 1026 10 16 0.00 0.00
11:52 am 11:52 Mostly Cloudy 37 2.8 21 -6.1 52 52 SSW 14 22 30.25 1024 10 16 0.00 0.00
12:52 pm 12:52 Partly Cloudy 40 4.4 23 -5 51 51 SSW 14 22 30.23 1024 10 16 0.00 0.00
1:52 pm 13:52 Mostly Sunny 43 6.1 24 -4.4 47 47 SSW 16 26 30.19 1022 10 16 0.00 0.00
2:52 pm 14:52 Mostly Sunny 45 7.2 26 -3.3 48 48 SSW 15 24 30.14 1021 10 16 0.00 0.00
3:52 pm 15:52 Mostly Sunny 46 7.8 26 -3.3 46 46 SW 16 26 30.12 1020 10 16 0.00 0.00
4:52 pm 16:52 Mostly Sunny 47 8.3 27 -2.8 46 46 SW 8 13 30.12 1020 10 16 0.00 0.00
5:52 pm 17:52 Sunny 48 8.9 26 -3.3 42 42 SW 14 22 30.14 1021 10 16 0.00 0.00
6:52 pm 18:52 Mostly Clear 45 7.2 26 -3.3 48 48 SW 12 19 30.14 1021 10 16 0.00 0.00
7:52 pm 19:52 Clear 44 6.7 25 -3.9 47 47 SW 13 20 30.15 1021 10 16 0.00 0.00
8:52 pm 20:52 Clear 43 6.1 26 -3.3 51 51 SW 10 17 30.16 1021 10 16 0.00 0.00
9:52 pm 21:52 Clear 41 5 26 -3.3 55 55 SW 7 11 30.18 1022 10 16 0.00 0.00
10:52 pm 22:52 Clear 40 4.4 26 -3.3 58 58 SW 8 13 30.19 1023 10 16 0.00 0.00
11:52 pm 23:52 Clear 38 3.3 26 -3.3 62 62 SW 7 11 30.20 1023 10 16 0.00 0.00

Powered by AerisWeather